Weather History for Cleveland Burke, OH

Change the Weather History Date:

Sunday, April 20, 2014

  Actual Average Record
Temperature  
Mean Temperature 56 °F -  
Max Temperature 72 °F 56 °F 80 °F (2003)
Min Temperature 41 °F 41 °F 33 °F (2013)
Degree Days  
Heating Degree Days 9    
Growing Degree Days 6 (Base 50)    
Moisture  
Dew Point 35 °F    
Average Humidity 55    
Maximum Humidity 83    
Minimum Humidity 22    
Precipitation  
Precipitation 0.00 in - - ()
Sea Level Pressure  
Sea Level Pressure 30.24 in    
Wind  
Wind Speed 4 mph (SE)    
Max Wind Speed 13 mph    
Max Gust Speed 17 mph    
Visibility 10 miles    
Events Rain    
Averages and records for this station are not official NWS values.
T = Trace of Precipitation, MM = Missing Value Source: NWS Daily Summary

Daily Weather History Graph

Daily Weather History Graph

Search for Another Location

Airport:

Trip Planner

Search our weather history database for the weather conditions in past years. The results will help you decide how hot, cold, wet, or windy it might be!

Date:

Astronomy

Apr. 20, 2014 Rise Set
Actual Time 6:39 AM EDT 8:12 PM EDT
Civil Twilight 6:10 AM EDT 8:41 PM EDT
Nautical Twilight 5:34 AM EDT 9:17 PM EDT
Astronomical Twilight 4:57 AM EDT 9:54 PM EDT
Moon 12:52 AM EDT (4/20) 10:56 AM EDT (4/20)
Length of Visible Light 14h 31m
Length of Day
13h 33m
Waning Gibbous, 69% of the Moon is Illuminated
Apr 20
Waning Gibbous
Apr 22
Last Quarter
Apr 29
New
May 6
First Quarter
May 14
Full

Hourly Weather History & Observations

Time (EDT) Temp. Windchill Dew Point Humidity Pressure Visibility Wind Dir Wind Speed Gust Speed Precip Events Conditions
12:53 AM 43.0 °F - 32.0 °F 65% 30.32 in 10.0 mi Calm Calm - N/A   Clear
1:53 AM 43.0 °F - 30.0 °F 60% 30.32 in 10.0 mi Calm Calm - N/A   Clear
2:53 AM 42.1 °F - 32.0 °F 67% 30.32 in 10.0 mi Calm Calm - N/A   Clear
3:53 AM 42.1 °F - 33.1 °F 70% 30.32 in 10.0 mi Calm Calm - N/A   Clear
4:53 AM 42.1 °F - 30.9 °F 65% 30.32 in 10.0 mi Calm Calm - N/A   Clear
5:53 AM 41.0 °F 39.0 °F 30.9 °F 67% 30.32 in 10.0 mi SE 3.5 mph - N/A   Clear
6:53 AM 43.0 °F 38.8 °F 30.0 °F 60% 30.32 in 10.0 mi SSE 6.9 mph - N/A   Clear
7:53 AM 46.0 °F 41.0 °F 30.0 °F 54% 30.32 in 10.0 mi SE 10.4 mph - N/A   Clear
8:53 AM 51.1 °F - 30.9 °F 46% 30.31 in 10.0 mi SE 8.1 mph - N/A   Clear
9:53 AM 57.9 °F - 30.0 °F 35% 30.30 in 10.0 mi SSE 11.5 mph - N/A Rain Heavy Rain
10:53 AM 62.1 °F - 30.0 °F 30% 30.29 in 10.0 mi South 10.4 mph - N/A   Clear
11:53 AM 66.0 °F - 30.0 °F 26% 30.27 in 10.0 mi SSE 9.2 mph - N/A   Clear
12:53 PM 68.0 °F - 28.9 °F 23% 30.25 in 10.0 mi South 12.7 mph 17.3 mph N/A   Clear
1:53 PM 70.0 °F - 30.9 °F 24% 30.23 in 10.0 mi South 10.4 mph - N/A   Clear
2:53 PM 71.1 °F - 30.0 °F 22% 30.20 in 10.0 mi SSE 9.2 mph - N/A   Clear
3:53 PM 60.1 °F - 41.0 °F 49% 30.20 in 10.0 mi North 8.1 mph - N/A   Clear
4:53 PM 55.9 °F - 43.0 °F 62% 30.19 in 10.0 mi NNE 9.2 mph - N/A   Clear
5:53 PM 53.1 °F - 42.1 °F 66% 30.17 in 10.0 mi NNE 10.4 mph - N/A   Clear
6:53 PM 54.0 °F - 41.0 °F 62% 30.15 in 10.0 mi NNE 4.6 mph - N/A   Clear
7:53 PM 50.0 °F - 39.9 °F 68% 30.15 in 10.0 mi NE 3.5 mph - N/A   Clear
8:53 PM 54.0 °F - 37.9 °F 55% 30.13 in 10.0 mi Calm Calm - N/A   Clear
9:53 PM 50.0 °F - 43.0 °F 77% 30.13 in 10.0 mi Calm Calm - N/A   Clear
10:53 PM 52.0 °F - 44.1 °F 74% 30.12 in 10.0 mi Calm Calm - N/A   Clear
11:53 PM 48.9 °F - 44.1 °F 83% 30.11 in 10.0 mi WSW 5.8 mph - N/A   Clear